Regional Weather Roundup
Issued by NWS Sioux Falls, SD

Home | Current Version | Previous Version | Text Only | Print | Product List | Glossary Off
Versions: 1 2 3 4 5 6 7 8 9 10 11 12 13 14 15 16 17 18 19 20 21 22 23 24 25 26 27 28 29 30 31 32 33 34 35 36 37 38 39 40 41 42 43 44 45 46 47 48 49 50

000
ASUS43 KFSD 251202
RWRFSD

WEATHER ROUNDUP FOR SE SOUTH DAKOTA/SW MINNESOTA/NW IOWA
NATIONAL WEATHER SERVICE SIOUX FALLS SD
700 AM CDT FRI JUL 25 2014

NOTE: "FAIR" INDICATES FEW OR NO CLOUDS BELOW 12,000 FEET WITH NO
SIGNIFICANT WEATHER AND OR OBSTRUCTIONS TO VISIBILITY.


SDZ038>040-050-052>070-251300-
SOUTHEAST SOUTH DAKOTA

CITY           SKY/WX    TMP DP  RH WIND       PRES   REMARKS
CHAMBERLAIN    PTCLDY    70  64  80 N6        29.75R
6HR MIN TEMP:  65; 6HR MAX TEMP:  77;

HURON          PTCLDY    65  62  90 CALM      29.75R
6HR MIN TEMP:  64; 6HR MAX TEMP:  71; 6HR PCP: TRACE;

MADISON        FAIR      63  63 100 S14G24    29.76F
MITCHELL       PTCLDY    67  63  87 SE16      29.73R
6HR MIN TEMP:  67; 6HR MAX TEMP:  72;

SIOUX FALLS    PTCLDY    66  61  84 SE18G28   29.79F
6HR MIN TEMP:  65; 6HR MAX TEMP:  68;

WINNER         FAIR      69  61  75 NW10      29.76R
YANKTON        CLEAR     66  63  88 E10G18    29.77F
$$

MNZ071-072-080-081-089-090-097-098-251300-
SOUTHWEST MINNESOTA

CITY           SKY/WX    TMP DP  RH WIND       PRES   REMARKS
FAIRMONT       CLOUDY    66  61  82 S21G26    29.85S THUNDER
JACKSON        TSTM      64  61  88 S17G25    29.85F
LUVERNE        MOCLDY    68  61  77 S20G28    29.80F
MARSHALL       MOCLDY    66  61  82 S20G28    29.70F
6HR MIN TEMP:  64; 6HR MAX TEMP:  70; 6HR PCP:  0.03;

MONTEVIDEO     CLOUDY    64  64 100 S7        29.75F
PIPESTONE      MOCLDY    64  61  88 S17G24    29.78S
REDWOOD FALLS  CLOUDY    67  64  90 S7        29.78R
TRACY          CLOUDY    67  63  88 S23G31    29.75S
WINDOM         CLOUDY    66  63  88 S18G25    29.80F
WORTHINGTON    MOCLDY    66  61  82 S22G29    29.79F
$$

IAZ001>003-012>014-020>022-031-032-NEZ013-014-SDZ071-251300-
NORTHWEST IOWA

CITY           SKY/WX    TMP DP  RH WIND       PRES   REMARKS
CHEROKEE       PTCLDY    64  61  90 SE13G23   29.85F
DENISON        MOCLDY    66  61  82 SE15G28   29.82F
ESTHERVILLE    CLOUDY    66  61  84 SE13      29.92R THUNDER
LE MARS        CLOUDY    66  61  82 SE14G23   29.82S
ORANGE CITY    CLOUDY    66  61  82 SE13G20   29.85R
SHELDON        CLOUDY    66  61  82 SE20G26   29.84F
SIOUX CITY     PTCLDY    68  61  78 E14       29.80R
6HR MIN TEMP:  68; 6HR MAX TEMP:  79;

SPENCER        CLOUDY    66  61  84 SE16      29.87S
6HR MIN TEMP:  63; 6HR MAX TEMP:  66; 6HR PCP:  0.10;

STORM LAKE     PTCLDY    63  63 100 SE17G26   29.88F
$$

ABBREVIATIONS USED IN REMARKS
   TC - TEMPERATURE IN CELSIUS
  WCI - WIND CHILL INDEX
   HX - HEAT INDEX
  VSB - VISIBILITY



USA.gov is the U.S. government's official web portal to all federal, state and local government web resources and services.